Wind_Speed
22 24 25 27 28 30 31 33 34 35 36 37 38 38 38 39 40 39 38 38 38 39 39 38 37 36 35 33 32 29 28 28 28 29 30 30 30 29 29 29 28 26 25
23 24 26 27 29 31 32 34 35 37 38 39 39 39 39 40 41 41 40 40 39 40 41 40 39 38 37 35 34 32 31 30 29 30 29 30 30 30 29 29 29 28 27
23 25 28 29 31 33 35 35 36 37 38 39 41 41 41 42 43 43 43 42 41 42 43 43 42 41 40 38 37 36 34 32 31 29 29 30 30 29 29 29 29 29 29
26 28 30 32 34 35 36 37 37 38 39 41 43 43 44 44 45 46 46 45 44 44 45 45 45 44 43 42 40 39 38 36 34 31 30 30 30 29 28 29 29 29 29
29 30 31 32 33 35 37 38 39 40 41 42 44 45 46 47 48 49 49 49 48 47 46 46 46 45 45 44 43 42 40 39 37 35 32 31 31 31 30 29 28 29 30
30 30 31 32 33 35 37 39 40 41 41 43 44 46 47 47 48 49 49 49 47 46 44 43 41 40 42 42 43 43 43 42 40 39 37 34 33 32 32 30 30 29 30
29 30 32 33 34 35 36 37 39 40 41 42 43 44 45 45 46 46 45 45 43 42 41 40 39 37 37 39 40 40 42 43 43 42 41 39 37 35 33 32 31 31 31
30 31 32 33 33 33 34 36 37 39 40 41 42 43 43 44 44 43 43 42 42 41 41 42 42 41 39 39 40 41 41 42 44 44 44 43 42 39 36 35 33 33 32
31 31 32 32 33 34 35 36 38 39 40 41 42 42 43 42 42 41 41 41 42 42 43 45 46 46 46 45 45 45 45 44 44 45 46 46 45 43 41 39 37 35 34
32 33 33 33 34 36 37 38 39 40 40 41 42 42 42 41 41 41 41 41 43 44 46 48 50 51 52 52 52 51 50 49 48 47 48 48 48 47 45 42 40 38 38
33 33 34 35 36 37 39 40 41 41 41 42 42 42 42 42 41 42 42 43 44 45 47 50 52 54 56 58 58 58 57 55 53 52 51 51 51 51 49 47 44 42 41
34 35 36 36 37 38 40 41 42 43 43 43 43 44 43 42 42 42 43 44 45 47 48 50 52 54 57 59 61 63 62 61 59 57 56 55 54 54 52 51 49 46 44
36 37 38 38 39 40 41 43 43 44 44 45 45 45 44 42 42 43 44 45 46 48 49 51 53 55 57 60 62 65 66 65 64 62 60 59 58 56 56 54 53 51 49
39 40 40 40 41 41 43 43 44 44 45 45 45 45 43 42 43 44 45 46 48 49 50 51 53 55 57 58 60 63 65 66 65 64 63 62 61 59 58 58 57 54 53
40 42 42 42 42 43 44 44 44 44 45 45 45 45 43 43 43 44 46 47 48 49 51 51 52 53 54 54 55 57 59 61 62 62 61 61 62 61 60 60 60 58 55
41 43 43 43 44 45 45 45 45 46 47 47 46 45 44 43 43 45 46 48 49 50 51 50 50 49 48 48 48 49 52 54 55 55 55 57 59 61 61 61 60 60 58
42 44 45 45 46 46 47 47 47 48 48 48 47 45 44 43 44 46 47 48 49 49 49 48 47 45 44 44 43 43 44 46 48 49 50 52 55 57 59 61 61 61 60
44 45 46 46 47 47 48 48 49 50 50 49 47 45 44 43 45 46 48 49 48 47 47 45 43 41 40 39 38 37 37 38 41 44 44 47 49 52 53 56 59 60 59
45 45 46 47 47 48 48 49 50 50 50 49 47 44 43 43 44 46 47 47 46 45 44 42 40 39 37 36 34 31 30 32 36 39 40 42 44 45 47 49 53 56 58
44 44 45 47 48 49 50 51 51 51 50 48 45 43 43 43 44 46 46 45 44 43 42 40 39 36 34 30 26 23 22 26 31 35 37 38 39 42 44 45 46 49 52
44 44 46 47 49 50 50 51 51 51 50 47 44 42 43 43 44 44 44 43 42 41 40 38 36 33 29 24 19 15 17 20 26 31 34 36 37 39 40 42 43 45 47
44 44 45 47 49 50 51 51 51 50 49 46 43 42 42 43 43 43 42 40 39 38 38 37 34 30 24 18 13 11 13 19 24 27 30 33 34 36 37 39 41 42 44
43 44 45 47 49 50 51 51 51 50 48 45 43 41 42 42 42 41 40 39 37 37 36 35 31 25 19 14 9 8 11 18 23 26 28 30 32 33 34 36 38 39 40
43 43 45 46 48 50 51 51 51 50 48 44 42 41 41 41 41 40 38 36 35 35 34 32 28 22 16 11 5 7 12 18 22 25 28 29 30 31 32 33 35 36 38
43 44 45 47 48 50 51 51 51 49 47 44 41 41 41 40 39 38 36 34 33 32 32 30 26 20 13 7 3 6 12 19 22 25 26 27 27 29 29 31 32 34 35
43 44 46 47 48 49 50 51 50 49 47 43 41 40 40 40 38 36 34 33 31 30 30 28 24 19 11 4 2 8 13 18 21 22 23 24 25 26 27 28 30 31 33
Wind_Direction
284 284 285 285 285 286 287 288 290 291 293 294 295 294 294 294 293 293 292 292 291 291 290 290 290 290 289 288 285 284 280 274 268 263 260 258 255 252 251 248 245 243 241
288 288 289 290 290 291 291 292 293 294 295 295 295 295 294 294 293 293 293 291 291 290 289 288 287 286 285 284 281 280 279 275 271 266 263 258 254 251 250 247 245 242 240
296 296 296 297 296 296 296 296 297 298 298 297 296 296 295 294 293 293 292 290 289 288 287 285 284 282 281 280 278 276 275 274 272 270 264 259 255 252 248 246 244 242 240
305 304 303 302 303 303 303 303 303 302 301 300 299 299 298 297 296 294 293 292 290 287 285 283 282 280 278 276 275 274 272 270 270 269 265 261 255 251 247 244 242 240 238
312 310 308 308 307 307 306 306 306 305 304 303 302 302 301 300 299 297 296 295 293 289 285 282 280 279 276 273 271 270 269 267 266 265 264 261 257 252 247 243 240 237 234
318 316 314 311 310 308 307 307 307 307 306 304 303 303 302 300 299 297 296 295 293 290 287 283 280 278 277 274 270 267 265 264 262 261 260 259 257 252 247 242 238 235 231
326 322 318 315 312 310 309 308 308 308 307 306 306 304 303 301 300 298 295 293 291 289 287 284 282 279 276 275 273 270 265 262 259 257 256 255 255 253 248 243 239 236 231
329 325 321 318 316 314 313 312 312 312 311 310 308 306 304 302 300 297 294 291 289 287 285 284 283 280 277 274 273 271 268 263 258 255 252 252 252 251 248 243 239 235 230
331 328 326 323 322 319 318 316 315 314 313 312 310 307 305 302 299 296 293 290 287 285 283 282 281 279 277 274 272 270 267 264 260 255 251 249 248 249 247 243 239 234 230
332 331 329 327 324 322 320 318 317 316 314 312 310 308 306 303 299 296 294 291 288 286 284 282 280 278 276 274 271 268 265 262 260 256 251 248 246 245 244 243 239 234 230
333 332 330 328 325 323 320 318 317 316 315 314 312 311 308 305 302 299 297 295 292 290 287 283 280 278 276 274 271 267 264 261 258 255 251 247 244 242 242 241 240 235 231
334 333 331 329 326 323 322 320 319 318 317 316 314 313 310 306 303 301 299 297 295 293 290 286 283 280 277 274 270 267 264 260 256 253 250 247 243 241 239 239 239 236 232
335 333 332 330 327 325 323 321 320 319 318 317 316 314 311 307 305 303 302 300 298 295 293 290 287 284 280 276 272 268 264 260 256 252 248 245 242 239 237 237 236 236 233
336 335 333 331 329 327 325 323 321 320 319 318 317 315 312 309 307 306 305 304 302 299 297 295 291 287 283 279 274 268 263 259 254 251 246 242 240 238 236 234 234 234 233
337 336 334 332 331 329 327 325 323 322 321 320 319 316 314 311 310 310 310 309 306 305 303 300 296 291 286 281 275 268 262 257 253 250 245 241 237 235 234 233 232 231 231
336 337 336 335 333 331 330 328 326 325 324 323 321 319 316 314 314 314 314 313 311 309 307 304 300 295 289 284 277 270 262 255 250 246 242 237 234 232 231 230 230 230 229
338 339 338 337 335 333 332 331 329 328 327 325 324 321 319 317 317 317 318 316 315 313 311 308 304 298 293 287 281 273 263 253 245 240 236 233 230 228 228 229 229 228 228
340 340 338 336 336 335 334 332 331 330 329 327 325 323 321 320 320 320 321 320 319 317 315 312 308 304 298 292 285 275 262 250 239 233 229 226 224 224 224 226 227 227 227
339 339 338 337 337 336 335 334 332 331 330 329 327 325 323 323 323 323 323 323 322 321 319 317 314 309 304 298 289 276 260 242 231 225 221 217 218 217 219 222 225 225 225
337 338 338 338 338 338 337 335 334 333 332 330 328 326 326 326 326 326 326 325 325 325 324 322 319 315 309 303 293 275 252 232 221 215 212 209 210 211 213 216 220 222 223
337 337 338 338 338 338 338 336 335 335 334 332 330 329 329 329 328 328 328 328 328 328 328 327 324 320 315 309 297 270 237 219 209 205 202 203 205 207 209 211 214 217 218
336 337 338 338 338 339 338 338 337 337 336 334 333 332 332 331 331 331 331 331 331 331 332 331 329 325 319 314 298 261 225 208 200 197 195 197 200 205 207 208 210 212 214
336 336 337 338 338 339 339 339 339 339 338 337 335 335 334 334 334 335 335 334 335 335 335 335 334 331 325 317 296 244 209 195 190 189 188 190 196 201 203 204 205 208 210
335 335 336 337 338 339 339 340 340 340 340 339 337 337 337 337 337 338 338 338 338 340 341 341 340 337 333 324 293 216 193 184 183 184 185 188 193 196 199 201 203 205 207
334 334 335 336 337 339 339 340 341 342 342 341 340 340 340 340 340 341 341 341 342 344 346 347 347 344 338 328 269 196 186 182 181 180 183 186 189 193 195 198 200 202 204
333 334 335 336 337 338 339 340 342 343 344 343 342 342 343 344 344 344 343 344 345 347 349 351 353 352 347 332 214 180 177 178 178 177 179 183 186 189 192 196 198 199 201
Height
5857 5855 5853 5852 5850 5848 5845 5842 5840 5837 5833 5829 5826 5823 5820 5817 5813 5811 5809 5807 5806 5804 5802 5801 5800 5799 5799 5798 5797 5797 5797 5797 5798 5799 5800 5802 5804 5807 5810 5814 5817 5820 5823
5852 5850 5848 5846 5844 5841 5838 5835 5832 5829 5825 5821 5817 5814 5811 5808 5805 5802 5800 5798 5797 5795 5793 5792 5792 5791 5791 5791 5790 5790 5791 5792 5792 5792 5793 5795 5797 5800 5803 5807 5810 5814 5817
5847 5845 5842 5839 5836 5833 5830 5827 5824 5820 5816 5812 5808 5805 5802 5799 5795 5792 5790 5788 5787 5785 5783 5781 5781 5781 5782 5782 5782 5782 5784 5784 5785 5786 5787 5788 5790 5793 5796 5799 5802 5806 5810
5842 5840 5836 5833 5829 5825 5821 5817 5814 5811 5807 5803 5798 5795 5791 5788 5785 5781 5778 5776 5775 5773 5771 5770 5769 5769 5770 5771 5773 5774 5775 5776 5777 5778 5779 5781 5783 5785 5788 5791 5794 5798 5802
5837 5834 5830 5826 5822 5818 5813 5809 5805 5802 5798 5793 5788 5784 5780 5776 5772 5769 5766 5763 5762 5760 5758 5757 5757 5756 5757 5759 5761 5763 5764 5766 5769 5770 5772 5773 5775 5777 5780 5783 5786 5791 5794
5832 5828 5824 5820 5816 5811 5807 5802 5797 5793 5789 5784 5779 5774 5770 5765 5761 5757 5754 5751 5749 5747 5745 5744 5744 5744 5744 5745 5748 5750 5753 5755 5758 5760 5763 5765 5767 5769 5772 5775 5779 5783 5787
5827 5822 5818 5813 5809 5805 5800 5795 5790 5785 5779 5774 5769 5764 5759 5755 5750 5746 5743 5740 5738 5736 5733 5732 5731 5732 5733 5733 5734 5736 5739 5742 5746 5749 5752 5755 5758 5760 5764 5767 5771 5776 5781
5823 5818 5813 5808 5803 5797 5792 5787 5782 5777 5771 5765 5760 5755 5750 5745 5741 5737 5733 5730 5728 5726 5724 5721 5720 5720 5721 5721 5722 5723 5725 5728 5732 5736 5740 5743 5747 5751 5755 5759 5763 5768 5773
5819 5813 5808 5802 5796 5791 5785 5780 5774 5769 5763 5757 5751 5746 5741 5736 5731 5727 5723 5720 5718 5715 5713 5711 5709 5707 5707 5708 5709 5710 5712 5714 5718 5722 5726 5730 5735 5740 5745 5750 5755 5760 5765
5815 5809 5802 5796 5791 5784 5778 5773 5767 5761 5755 5749 5743 5736 5731 5726 5721 5717 5713 5710 5707 5704 5701 5698 5696 5694 5693 5692 5693 5695 5697 5700 5703 5707 5711 5716 5722 5727 5732 5738 5744 5750 5755
5810 5804 5797 5791 5784 5778 5771 5765 5758 5752 5746 5739 5732 5726 5720 5715 5709 5705 5701 5697 5694 5691 5687 5684 5681 5678 5676 5675 5675 5676 5679 5682 5687 5691 5696 5701 5707 5713 5719 5725 5732 5739 5745
5805 5798 5791 5785 5778 5770 5763 5756 5749 5742 5735 5728 5722 5715 5709 5703 5698 5694 5689 5685 5680 5676 5672 5668 5664 5660 5657 5655 5654 5654 5657 5661 5666 5672 5678 5684 5691 5698 5705 5712 5719 5726 5733
5800 5793 5785 5778 5770 5763 5755 5747 5739 5732 5725 5718 5711 5704 5698 5692 5687 5682 5676 5671 5666 5661 5655 5650 5645 5641 5637 5634 5632 5631 5633 5637 5643 5650 5658 5666 5673 5681 5689 5697 5705 5713 5721
5794 5786 5778 5771 5763 5755 5747 5739 5731 5723 5716 5708 5701 5694 5687 5681 5675 5669 5663 5657 5650 5644 5638 5632 5625 5620 5615 5611 5608 5606 5607 5612 5618 5626 5635 5645 5654 5663 5672 5681 5690 5699 5708
5788 5780 5772 5763 5755 5747 5739 5730 5722 5714 5707 5699 5691 5683 5676 5669 5663 5656 5649 5642 5634 5627 5620 5612 5605 5598 5592 5588 5584 5583 5583 5587 5594 5602 5612 5623 5633 5644 5654 5664 5674 5684 5694
5782 5773 5764 5756 5747 5739 5730 5722 5713 5705 5696 5688 5680 5672 5665 5658 5651 5643 5636 5628 5619 5611 5602 5594 5586 5578 5572 5567 5563 5561 5562 5566 5572 5580 5590 5601 5612 5624 5636 5647 5658 5669 5679
5775 5766 5757 5748 5740 5731 5722 5713 5704 5695 5687 5678 5670 5662 5654 5647 5639 5631 5623 5614 5605 5596 5586 5577 5569 5561 5555 5549 5545 5542 5543 5547 5553 5562 5572 5582 5593 5606 5619 5631 5642 5654 5665
5768 5759 5750 5742 5733 5723 5714 5705 5696 5687 5678 5669 5660 5652 5644 5636 5628 5620 5611 5601 5591 5582 5572 5563 5554 5546 5539 5533 5529 5526 5526 5530 5537 5546 5557 5567 5579 5591 5604 5615 5627 5639 5651
5762 5754 5744 5735 5726 5717 5708 5698 5688 5679 5669 5660 5651 5643 5635 5627 5618 5609 5600 5589 5580 5570 5560 5550 5541 5533 5526 5520 5515 5512 5513 5517 5524 5533 5544 5555 5567 5579 5591 5603 5614 5626 5637
5757 5748 5739 5729 5720 5711 5701 5691 5681 5672 5662 5652 5643 5635 5626 5618 5609 5600 5590 5580 5569 5560 5550 5541 5531 5523 5515 5509 5504 5502 5503 5508 5515 5524 5534 5545 5557 5568 5579 5590 5601 5612 5624
5751 5742 5733 5724 5714 5705 5695 5685 5675 5665 5655 5645 5636 5627 5619 5610 5601 5591 5581 5571 5561 5552 5542 5533 5523 5515 5507 5502 5498 5496 5498 5503 5509 5518 5528 5538 5548 5559 5570 5581 5591 5601 5612
5745 5737 5728 5719 5709 5699 5689 5680 5669 5659 5649 5639 5629 5621 5612 5603 5593 5584 5574 5564 5555 5545 5536 5526 5517 5509 5502 5498 5495 5494 5496 5500 5507 5515 5524 5533 5543 5553 5562 5573 5582 5592 5603
5740 5731 5722 5713 5704 5694 5684 5674 5663 5653 5643 5632 5623 5614 5606 5596 5586 5577 5567 5558 5549 5540 5531 5522 5513 5505 5500 5496 5494 5494 5496 5500 5506 5514 5522 5530 5539 5548 5557 5566 5576 5585 5595
5734 5726 5717 5708 5699 5689 5678 5668 5658 5647 5637 5627 5618 5609 5600 5591 5581 5572 5562 5554 5545 5537 5528 5519 5511 5504 5499 5496 5495 5495 5498 5502 5507 5514 5521 5529 5537 5545 5553 5562 5570 5579 5589
5728 5720 5711 5702 5693 5683 5673 5663 5653 5642 5632 5622 5613 5604 5595 5586 5577 5567 5559 5550 5543 5535 5527 5518 5510 5504 5500 5497 5497 5498 5500 5504 5509 5515 5522 5529 5536 5543 5551 5559 5567 5575 5583
5723 5714 5706 5697 5688 5678 5669 5659 5648 5638 5628 5618 5609 5600 5592 5582 5573 5564 5556 5548 5541 5534 5526 5519 5511 5505 5501 5499 5499 5500 5503 5507 5512 5518 5524 5530 5536 5543 5550 5557 5564 5571 5578